This is the latest recevied weather packets stored in our database for station/object KD7CIH. If no packets are shown the sender has not sent any weather packets the latest 10 day(s).
| Time | Temp. | Humidity | Pressure | Rain* | Wind** | Luminosity | Snow |
|---|---|---|---|---|---|---|---|
| 1787577507 | 13.33° C | 72% | 1021 hPa | 0 mm | - | - | - |
| 1787577205 | 13.89° C | 73% | 1020.9 hPa | 0 mm | - | - | - |
| 1787576905 | 13.89° C | 73% | 1020.7 hPa | 0 mm | - | - | - |
| 1787576606 | 13.33° C | 73% | 1020.7 hPa | 0 mm | - | - | - |
| 1787576308 | 13.33° C | 73% | 1020.7 hPa | 0 mm | - | - | - |
| 1787576006 | 13.33° C | 72% | 1020.7 hPa | 0 mm | - | - | - |
| 1787575706 | 13.89° C | 71% | 1020.7 hPa | 0 mm | - | - | - |
| 1787575403 | 13.89° C | 71% | 1020.5 hPa | 0 mm | - | - | - |
| 1787575102 | 13.89° C | 72% | 1020.6 hPa | 0 mm | - | - | - |
| 1787574802 | 13.89° C | 71% | 1020.6 hPa | 0 mm | - | - | - |
| 1787574501 | 14.44° C | 70% | 1020.6 hPa | 0 mm | - | - | - |
| 1787574199 | 14.44° C | 70% | 1020.6 hPa | 0 mm | - | - | - |
| 1787574027 | 14.44° C | 69% | 1020.5 hPa | 0 mm | - | - | - |
| 1787573600 | 14.44° C | 69% | 1020.5 hPa | 0 mm | - | - | - |
| 1787573300 | 14.44° C | 70% | 1020.2 hPa | 0 mm | - | - | - |
| 1787572999 | 15° C | 69% | 1020.4 hPa | 0 mm | - | - | - |
| 1787572701 | 15.56° C | 66% | 1020.4 hPa | 0 mm | - | - | - |
| 1787572526 | 16.67° C | 62% | 1020.4 hPa | 0 mm | - | - | - |
| 1787572100 | 16.67° C | 59% | 1020.4 hPa | 0 mm | - | - | - |
| 1787571799 | 16.67° C | 59% | 1020.1 hPa | 0 mm | - | - | - |
| 1787571629 | 16.67° C | 60% | 1020.1 hPa | 0 mm | - | - | - |
| 1787571199 | 16.11° C | 60% | 1020.1 hPa | 0 mm | - | - | - |
| 1787570899 | 16.11° C | 61% | 1020 hPa | 0 mm | - | - | - |
| 1787570599 | 16.11° C | 61% | 1020.1 hPa | 0 mm | - | - | - |
| 1787570427 | 16.11° C | 62% | 1020.1 hPa | 0 mm | - | - | - |
* Rain latest hour (hover to see other rain measurements)
** Current wind speed in m/s (hover to see current wind gust speed)